Change the Weather History Date:

Wednesday, July 10, 2013

  Actual Average Record
Temperature  
Mean Temperature 81 °F 79 °F  
Max Temperature 91 °F 89 °F 106 °F (1980)
Min Temperature 71 °F 69 °F 53 °F (1961)
Degree Days  
Heating Degree Days 0 0  
Month to date heating degree days 0 0  
Since 1 June heating degree days 9 6  
Since 1 July heating degree days 0 0  
Cooling Degree Days 16 14  
Month to date cooling degree days 120 137  
Year to date cooling degree days 575 580  
Since 1 June cooling degree days 427 441  
Growing Degree Days 33 (Base 50)    
Moisture  
Dew Point 69 °F    
Average Humidity 57    
Maximum Humidity 73    
Minimum Humidity 41    
Precipitation  
Precipitation 0.00 in 0.16 in 1.21 in (1978)
Month to date precipitation 0.43 1.34  
Year to date precipitation 25.84 21.58  
Sea Level Pressure  
Sea Level Pressure 29.97 in    
Wind  
Wind Speed 8 mph (NNW)    
Max Wind Speed 17 mph    
Max Gust Speed 24 mph    
Visibility 10 miles    
Events      
T = Trace of Precipitation, MM = Missing Value Source: NWS Daily Summary

Daily Weather History Graph

Daily Weather History Graph

Search for Another Location

Airport or City:

Trip Planner

Search our weather history database for the weather conditions in past years. The results will help you decide how hot, cold, wet, or windy it might be!

Date:

Astronomy

Jul. 10, 2013 Rise Set
Actual Time 5:56 AM CDT 8:39 PM CDT
Civil Twilight 5:25 AM CDT 9:10 PM CDT
Nautical Twilight 4:46 AM CDT 9:49 PM CDT
Astronomical Twilight 4:02 AM CDT 10:33 PM CDT
Moon 8:16 AM CDT (7/10) 9:51 PM CDT (7/10)
Length of Visible Light 15h 44m
Length of Day
14h 42m
Waxing Crescent, 5% of the Moon is Illuminated
Jul 10
Waxing Crescent
Jul 15
First Quarter
Jul 22
Full
Jul 29
Last Quarter
Aug 6
New

Hourly Weather History & Observations

Time (CDT) Temp. Heat Index Dew Point Humidity Pressure Visibility Wind Dir Wind Speed Gust Speed Precip Events Conditions
12:53 AM 84.9 °F 89.4 °F 70.0 °F 61% 29.92 in 10.0 mi SW 10.4 mph - N/A   Clear
1:53 AM 86.0 °F 90.7 °F 70.0 °F 59% 29.90 in 10.0 mi SW 13.8 mph - N/A   Mostly Cloudy
2:53 AM 86.0 °F 90.7 °F 70.0 °F 59% 29.89 in 10.0 mi WSW 12.7 mph - N/A   Mostly Cloudy
3:53 AM 84.0 °F 89.0 °F 71.1 °F 65% 29.90 in 10.0 mi WSW 9.2 mph 19.6 mph N/A   Partly Cloudy
4:53 AM 82.0 °F 86.3 °F 71.1 °F 69% 29.89 in 10.0 mi SSW 11.5 mph - N/A   Clear
5:53 AM 82.0 °F 86.3 °F 71.1 °F 69% 29.93 in 10.0 mi WSW 11.5 mph - N/A   Scattered Clouds
6:53 AM 82.9 °F 86.5 °F 69.1 °F 63% 29.94 in 10.0 mi West 5.8 mph - N/A   Clear
7:53 AM 84.9 °F 88.8 °F 69.1 °F 59% 29.91 in 10.0 mi West 9.2 mph - N/A   Clear
8:53 AM 84.9 °F 88.8 °F 69.1 °F 59% 29.98 in 10.0 mi WNW 6.9 mph - N/A   Scattered Clouds
9:53 AM 86.0 °F 92.2 °F 72.0 °F 63% 29.99 in 10.0 mi West 6.9 mph - N/A   Overcast
10:53 AM 87.1 °F 93.6 °F 72.0 °F 61% 30.00 in 10.0 mi NNW 5.8 mph - N/A   Mostly Cloudy
11:53 AM 89.1 °F 100.2 °F 75.9 °F 65% 29.99 in 10.0 mi NNE 9.2 mph - N/A   Mostly Cloudy
12:30 PM 87.8 °F 97.6 °F 75.2 °F 66% 30.03 in 10.0 mi North 10.4 mph - N/A   Overcast
12:53 PM 86.0 °F 93.8 °F 73.9 °F 67% 30.00 in 10.0 mi North 10.4 mph - N/A   Overcast
1:21 PM 87.8 °F 95.6 °F 73.4 °F 62% 30.03 in 10.0 mi NNE 10.4 mph - N/A   Overcast
1:43 PM 86.0 °F 90.4 °F 69.8 °F 58% 30.03 in 10.0 mi North 11.5 mph - N/A   Overcast
1:53 PM 87.1 °F 92.0 °F 70.0 °F 57% 30.01 in 10.0 mi NNE 12.7 mph - N/A   Overcast
2:08 PM 87.8 °F 92.6 °F 69.8 °F 55% 30.03 in 10.0 mi NE 10.4 mph - N/A   Overcast
2:53 PM 89.1 °F 94.1 °F 70.0 °F 53% 29.99 in 10.0 mi NNE 8.1 mph - N/A   Scattered Clouds
3:53 PM 91.0 °F 96.6 °F 70.0 °F 50% 29.98 in 10.0 mi NNE 9.2 mph - N/A   Clear
4:53 PM 90.0 °F 92.4 °F 66.0 °F 45% 29.96 in 10.0 mi NNW 6.9 mph - N/A   Clear
5:53 PM 90.0 °F 90.3 °F 62.1 °F 39% 29.95 in 10.0 mi North 10.4 mph - N/A   Clear
6:53 PM 89.1 °F 90.3 °F 64.0 °F 43% 29.94 in 10.0 mi North 6.9 mph - N/A   Clear
7:53 PM 84.0 °F 85.4 °F 64.0 °F 51% 29.94 in 10.0 mi North 5.8 mph - N/A   Clear
8:53 PM 79.0 °F - 64.0 °F 60% 29.96 in 10.0 mi North 3.5 mph - N/A   Clear
9:53 PM 77.0 °F - 63.0 °F 62% 29.98 in 10.0 mi NNE 3.5 mph - N/A   Clear
10:53 PM 75.9 °F - 64.0 °F 67% 30.01 in 10.0 mi Calm Calm - N/A   Clear
11:53 PM 73.9 °F - 64.0 °F 71% 30.01 in 10.0 mi NE 4.6 mph - N/A   Clear